Year,Month,Day,Hour,Minute,Value (Times are PST for temperature in C)
2023,05,13,00,00,16.40
2023,05,13,00,01,16.40
2023,05,13,00,02,16.40
2023,05,13,00,03,16.40
2023,05,13,00,04,16.40
2023,05,13,00,05,16.40
2023,05,13,00,06,16.40
2023,05,13,00,07,16.40
2023,05,13,00,08,16.40
2023,05,13,00,09,16.40
2023,05,13,00,10,16.40
2023,05,13,00,11,16.40
2023,05,13,00,12,16.40
2023,05,13,00,13,16.40
2023,05,13,00,14,16.40
2023,05,13,00,15,16.40
2023,05,13,00,16,16.40
2023,05,13,00,17,16.40
2023,05,13,00,18,16.40
2023,05,13,00,19,16.40
2023,05,13,00,20,16.40
2023,05,13,00,21,16.30
2023,05,13,00,22,16.30
2023,05,13,00,23,16.30
2023,05,13,00,24,16.30
2023,05,13,00,25,16.30
2023,05,13,00,26,16.30
2023,05,13,00,27,16.20
2023,05,13,00,28,16.20
2023,05,13,00,29,16.20
2023,05,13,00,30,16.10
2023,05,13,00,31,16.10
2023,05,13,00,32,16.10
2023,05,13,00,33,16.10
2023,05,13,00,34,16.00
2023,05,13,00,35,16.00
2023,05,13,00,36,16.00
2023,05,13,00,37,15.90
2023,05,13,00,38,15.90
2023,05,13,00,39,15.90
2023,05,13,00,40,15.90
2023,05,13,00,41,15.90
2023,05,13,00,42,15.80
2023,05,13,00,43,15.80
2023,05,13,00,44,15.80
2023,05,13,00,45,15.80
2023,05,13,00,46,15.80
2023,05,13,00,47,15.80
2023,05,13,00,48,15.80
2023,05,13,00,49,15.80
2023,05,13,00,50,15.80
2023,05,13,00,51,15.80
2023,05,13,00,52,15.80
2023,05,13,00,53,15.90
2023,05,13,00,54,15.80
2023,05,13,00,55,15.80
2023,05,13,00,56,15.90
2023,05,13,00,57,15.80
2023,05,13,00,58,15.80
2023,05,13,00,59,15.80
2023,05,13,01,00,15.80
2023,05,13,01,01,15.80
2023,05,13,01,02,15.70
2023,05,13,01,03,15.70
2023,05,13,01,04,15.70
2023,05,13,01,05,15.70
2023,05,13,01,06,15.60
2023,05,13,01,07,15.60
2023,05,13,01,08,15.60
2023,05,13,01,09,15.60
2023,05,13,01,10,15.50
2023,05,13,01,11,15.50
2023,05,13,01,12,15.40
2023,05,13,01,13,15.40
2023,05,13,01,14,15.30
2023,05,13,01,15,15.30
2023,05,13,01,16,15.30
2023,05,13,01,17,15.30
2023,05,13,01,18,15.40
2023,05,13,01,19,15.40
2023,05,13,01,20,15.40
2023,05,13,01,21,15.50
2023,05,13,01,22,15.60
2023,05,13,01,23,15.60
2023,05,13,01,24,15.60
2023,05,13,01,25,15.70
2023,05,13,01,26,15.70
2023,05,13,01,27,15.70
2023,05,13,01,28,15.70
2023,05,13,01,29,15.60
2023,05,13,01,30,15.60
2023,05,13,01,31,15.60
2023,05,13,01,32,15.60
2023,05,13,01,33,15.50
2023,05,13,01,34,15.50
2023,05,13,01,35,15.40
2023,05,13,01,36,15.30
2023,05,13,01,37,15.30
2023,05,13,01,38,15.30
2023,05,13,01,39,15.20
2023,05,13,01,40,15.20
2023,05,13,01,41,15.10
2023,05,13,01,42,15.10
2023,05,13,01,43,15.10
2023,05,13,01,44,15.00
2023,05,13,01,45,15.00
2023,05,13,01,46,14.90
2023,05,13,01,47,14.90
2023,05,13,01,48,14.90
2023,05,13,01,49,14.90
2023,05,13,01,50,14.80
2023,05,13,01,51,14.80
2023,05,13,01,52,14.80
2023,05,13,01,53,14.90
2023,05,13,01,54,14.90
2023,05,13,01,55,14.90
2023,05,13,01,56,14.90
2023,05,13,01,57,14.90
2023,05,13,01,58,14.90
2023,05,13,01,59,14.90
2023,05,13,02,00,14.90
2023,05,13,02,01,15.00
2023,05,13,02,02,15.00
2023,05,13,02,03,15.10
2023,05,13,02,04,15.20
2023,05,13,02,05,15.30
2023,05,13,02,06,15.30
2023,05,13,02,07,15.40
2023,05,13,02,08,15.40
2023,05,13,02,09,15.50
2023,05,13,02,10,15.50
2023,05,13,02,11,15.60
2023,05,13,02,12,15.60
2023,05,13,02,13,15.60
2023,05,13,02,14,15.60
2023,05,13,02,15,15.50
2023,05,13,02,16,15.50
2023,05,13,02,17,15.40
2023,05,13,02,18,15.40
2023,05,13,02,19,15.40
2023,05,13,02,20,15.40
2023,05,13,02,21,15.50
2023,05,13,02,22,15.60
2023,05,13,02,23,15.60
2023,05,13,02,24,15.60
2023,05,13,02,25,15.60
2023,05,13,02,26,15.60
2023,05,13,02,27,15.60
2023,05,13,02,28,15.60
2023,05,13,02,29,15.60
2023,05,13,02,30,15.60
2023,05,13,02,31,15.70
2023,05,13,02,32,15.70
2023,05,13,02,33,15.80
2023,05,13,02,34,15.80
2023,05,13,02,35,15.80
2023,05,13,02,36,15.90
2023,05,13,02,37,15.90
2023,05,13,02,38,15.80
2023,05,13,02,39,15.80
2023,05,13,02,40,15.80
2023,05,13,02,41,15.80
2023,05,13,02,42,15.80
2023,05,13,02,43,15.80
2023,05,13,02,44,15.80
2023,05,13,02,45,15.80
2023,05,13,02,46,15.80
2023,05,13,02,47,15.80
2023,05,13,02,48,15.70
2023,05,13,02,49,15.70
2023,05,13,02,50,15.70
2023,05,13,02,51,15.70
2023,05,13,02,52,15.60
2023,05,13,02,53,15.60
2023,05,13,02,54,15.50
2023,05,13,02,55,15.50
2023,05,13,02,56,15.40
2023,05,13,02,57,15.40
2023,05,13,02,58,15.40
2023,05,13,02,59,15.40
2023,05,13,03,00,15.40
2023,05,13,03,01,15.30
2023,05,13,03,02,15.40
2023,05,13,03,03,15.40
2023,05,13,03,04,15.50
2023,05,13,03,05,15.50
2023,05,13,03,06,15.60
2023,05,13,03,07,15.60
2023,05,13,03,08,15.70
2023,05,13,03,09,15.70
2023,05,13,03,10,15.70
2023,05,13,03,11,15.70
2023,05,13,03,12,15.70
2023,05,13,03,13,15.70
2023,05,13,03,14,15.70
2023,05,13,03,15,15.70
2023,05,13,03,16,15.60
2023,05,13,03,17,15.60
2023,05,13,03,18,15.50
2023,05,13,03,19,15.50
2023,05,13,03,20,15.50
2023,05,13,03,21,15.50
2023,05,13,03,22,15.50
2023,05,13,03,23,15.50
2023,05,13,03,24,15.50
2023,05,13,03,25,15.40
2023,05,13,03,26,15.40
2023,05,13,03,27,15.40
2023,05,13,03,28,15.40
2023,05,13,03,29,15.40
2023,05,13,03,30,15.30
2023,05,13,03,31,15.30
2023,05,13,03,32,15.30
2023,05,13,03,33,15.30
2023,05,13,03,34,15.20
2023,05,13,03,35,15.20
2023,05,13,03,36,15.10
2023,05,13,03,37,15.10
2023,05,13,03,38,15.00
2023,05,13,03,39,15.00
2023,05,13,03,40,14.90
2023,05,13,03,41,14.80
2023,05,13,03,42,14.80
2023,05,13,03,43,14.70
2023,05,13,03,44,14.70
2023,05,13,03,45,14.60
2023,05,13,03,46,14.50
2023,05,13,03,47,14.50
2023,05,13,03,48,14.40
2023,05,13,03,49,14.30
2023,05,13,03,50,14.30
2023,05,13,03,51,14.20
2023,05,13,03,52,14.20
2023,05,13,03,53,14.30
2023,05,13,03,54,14.30
2023,05,13,03,55,14.30
2023,05,13,03,56,14.30
2023,05,13,03,57,14.30
2023,05,13,03,58,14.40
2023,05,13,03,59,14.50
2023,05,13,04,00,14.50
2023,05,13,04,01,14.60
2023,05,13,04,02,14.60
2023,05,13,04,03,14.60
2023,05,13,04,04,14.70
2023,05,13,04,05,14.70
2023,05,13,04,06,14.70
2023,05,13,04,07,14.70
2023,05,13,04,08,14.70
2023,05,13,04,09,14.70
2023,05,13,04,10,14.70
2023,05,13,04,11,14.70
2023,05,13,04,12,14.60
2023,05,13,04,13,14.60
2023,05,13,04,14,14.60
2023,05,13,04,15,14.50
2023,05,13,04,16,14.40
2023,05,13,04,17,14.40
2023,05,13,04,18,14.30
2023,05,13,04,19,14.30
2023,05,13,04,20,14.30
2023,05,13,04,21,14.30
2023,05,13,04,22,14.30
2023,05,13,04,23,14.30
2023,05,13,04,24,14.30
2023,05,13,04,25,14.30
2023,05,13,04,26,14.20
2023,05,13,04,27,14.20
2023,05,13,04,28,14.20
2023,05,13,04,29,14.20
2023,05,13,04,30,14.20
2023,05,13,04,31,14.20
2023,05,13,04,32,14.20
2023,05,13,04,33,14.20
2023,05,13,04,34,14.20
2023,05,13,04,35,14.20
2023,05,13,04,36,14.20
2023,05,13,04,37,14.20
2023,05,13,04,38,14.30
2023,05,13,04,39,14.30
2023,05,13,04,40,14.40
2023,05,13,04,41,14.60
2023,05,13,04,42,14.70
2023,05,13,04,43,14.80
2023,05,13,04,44,14.90
2023,05,13,04,45,15.00
2023,05,13,04,46,15.10
2023,05,13,04,47,15.20
2023,05,13,04,48,15.20
2023,05,13,04,49,15.20
2023,05,13,04,50,15.30
2023,05,13,04,51,15.30
2023,05,13,04,52,15.30
2023,05,13,04,53,15.30
2023,05,13,04,54,15.30
2023,05,13,04,55,15.30
2023,05,13,04,56,15.30
2023,05,13,04,57,15.30
2023,05,13,04,58,15.20
2023,05,13,04,59,15.20
2023,05,13,05,00,15.20
2023,05,13,05,01,15.10
2023,05,13,05,02,15.10
2023,05,13,05,03,15.10
2023,05,13,05,04,15.10
2023,05,13,05,05,15.10
2023,05,13,05,06,15.10
2023,05,13,05,07,15.20
2023,05,13,05,08,15.20
2023,05,13,05,09,15.30
2023,05,13,05,10,15.20
2023,05,13,05,11,15.20
2023,05,13,05,12,15.20
2023,05,13,05,13,15.20
2023,05,13,05,14,15.10
2023,05,13,05,15,15.10
2023,05,13,05,16,15.00
2023,05,13,05,17,15.00
2023,05,13,05,18,15.00
2023,05,13,05,19,14.90
2023,05,13,05,20,14.90
2023,05,13,05,21,14.90
2023,05,13,05,22,14.90
2023,05,13,05,23,15.00
2023,05,13,05,24,15.00
2023,05,13,05,25,15.00
2023,05,13,05,26,15.00
2023,05,13,05,27,14.90
2023,05,13,05,28,14.90
2023,05,13,05,29,14.80
2023,05,13,05,30,14.80
2023,05,13,05,31,14.80
2023,05,13,05,32,14.80
2023,05,13,05,33,14.70
2023,05,13,05,34,14.70
2023,05,13,05,35,14.70
2023,05,13,05,36,14.60
2023,05,13,05,37,14.60
2023,05,13,05,38,14.60
2023,05,13,05,39,14.60
2023,05,13,05,40,14.60
2023,05,13,05,41,14.60
2023,05,13,05,42,14.60
2023,05,13,05,43,14.50
2023,05,13,05,44,14.40
2023,05,13,05,45,14.40
2023,05,13,05,46,14.40
2023,05,13,05,47,14.40
2023,05,13,05,48,14.50
2023,05,13,05,49,14.60
2023,05,13,05,50,14.70
2023,05,13,05,51,14.80
2023,05,13,05,52,14.90
2023,05,13,05,53,15.00
2023,05,13,05,54,15.10
2023,05,13,05,55,15.10
2023,05,13,05,56,15.10
2023,05,13,05,57,15.10
2023,05,13,05,58,15.10
2023,05,13,05,59,15.10
2023,05,13,06,00,15.10
2023,05,13,06,01,15.10
2023,05,13,06,02,15.10
2023,05,13,06,03,15.00
2023,05,13,06,04,15.00
2023,05,13,06,05,14.90
2023,05,13,06,06,14.90
2023,05,13,06,07,14.90
2023,05,13,06,08,14.90
2023,05,13,06,09,14.90
2023,05,13,06,10,14.90
2023,05,13,06,11,14.90
2023,05,13,06,12,14.90
2023,05,13,06,13,14.90
2023,05,13,06,14,14.90
2023,05,13,06,15,14.90
2023,05,13,06,16,14.80
2023,05,13,06,17,14.80
2023,05,13,06,18,14.80
2023,05,13,06,19,14.80
2023,05,13,06,20,14.80
2023,05,13,06,21,14.80
2023,05,13,06,22,14.80
2023,05,13,06,23,14.80
2023,05,13,06,24,14.80
2023,05,13,06,25,14.70
2023,05,13,06,26,14.70
2023,05,13,06,27,14.60
2023,05,13,06,28,14.60
2023,05,13,06,29,14.60
2023,05,13,06,30,14.50
2023,05,13,06,31,14.50
2023,05,13,06,32,14.50
2023,05,13,06,33,14.40
2023,05,13,06,34,14.40
2023,05,13,06,35,14.30
2023,05,13,06,36,14.30
2023,05,13,06,37,14.30
2023,05,13,06,38,14.30
2023,05,13,06,39,14.20
2023,05,13,06,40,14.20
2023,05,13,06,41,14.20
2023,05,13,06,42,14.20
2023,05,13,06,43,14.10
2023,05,13,06,44,14.10
2023,05,13,06,45,14.10
2023,05,13,06,46,14.10
2023,05,13,06,47,14.10
2023,05,13,06,48,14.10
2023,05,13,06,49,14.10
2023,05,13,06,50,14.10
2023,05,13,06,51,14.10
2023,05,13,06,52,14.10
2023,05,13,06,53,14.10
2023,05,13,06,54,14.10
2023,05,13,06,55,14.10
2023,05,13,06,56,14.10
2023,05,13,06,57,14.10
2023,05,13,06,58,14.10
2023,05,13,06,59,14.10
2023,05,13,07,00,14.10
2023,05,13,07,01,14.10
2023,05,13,07,02,14.20
2023,05,13,07,03,14.20
2023,05,13,07,04,14.20
2023,05,13,07,05,14.20
2023,05,13,07,06,14.20
2023,05,13,07,07,14.30
2023,05,13,07,08,14.30
2023,05,13,07,09,14.30
2023,05,13,07,10,14.40
2023,05,13,07,11,14.40
2023,05,13,07,12,14.40
2023,05,13,07,13,14.40
2023,05,13,07,14,14.50
2023,05,13,07,15,14.50
2023,05,13,07,16,14.50
2023,05,13,07,17,14.60
2023,05,13,07,18,14.60
2023,05,13,07,19,14.60
2023,05,13,07,20,14.60
2023,05,13,07,21,14.60
2023,05,13,07,22,14.60
2023,05,13,07,23,14.60
2023,05,13,07,24,14.60
2023,05,13,07,25,14.60
2023,05,13,07,26,14.60
2023,05,13,07,27,14.60
2023,05,13,07,28,14.60
2023,05,13,07,29,14.60
2023,05,13,07,30,14.70
2023,05,13,07,31,14.70
2023,05,13,07,32,14.70
2023,05,13,07,33,14.70
2023,05,13,07,34,14.70
2023,05,13,07,35,14.70
2023,05,13,07,36,14.70
2023,05,13,07,37,14.80
2023,05,13,07,38,14.80
2023,05,13,07,39,14.70
2023,05,13,07,40,14.80
2023,05,13,07,41,14.80
2023,05,13,07,42,14.80
2023,05,13,07,43,14.80
2023,05,13,07,44,14.90
2023,05,13,07,45,14.90
2023,05,13,07,46,15.00
2023,05,13,07,47,15.00
2023,05,13,07,48,15.10
2023,05,13,07,49,15.20
2023,05,13,07,50,15.20
2023,05,13,07,51,15.30
2023,05,13,07,52,15.30
2023,05,13,07,53,15.40
2023,05,13,07,54,15.40
2023,05,13,07,55,15.50
2023,05,13,07,56,15.50
2023,05,13,07,57,15.50
2023,05,13,07,58,15.60
2023,05,13,07,59,15.70
2023,05,13,08,00,15.70
2023,05,13,08,01,15.80
2023,05,13,08,02,15.80
2023,05,13,08,03,15.90
2023,05,13,08,04,15.90
2023,05,13,08,05,16.00
2023,05,13,08,06,16.00
2023,05,13,08,07,16.10
2023,05,13,08,08,16.20
2023,05,13,08,09,16.20
2023,05,13,08,10,16.20
2023,05,13,08,11,16.20
2023,05,13,08,12,16.20
2023,05,13,08,13,16.30
2023,05,13,08,14,16.30
2023,05,13,08,15,16.30
2023,05,13,08,16,16.30
2023,05,13,08,17,16.30
2023,05,13,08,18,16.40
2023,05,13,08,19,16.40
2023,05,13,08,20,16.40
2023,05,13,08,21,16.50
2023,05,13,08,22,16.50
2023,05,13,08,23,16.60
2023,05,13,08,24,16.60
2023,05,13,08,25,16.60
2023,05,13,08,26,16.70
2023,05,13,08,27,16.70
2023,05,13,08,28,16.70
2023,05,13,08,29,16.80
2023,05,13,08,30,16.80
2023,05,13,08,31,16.90
2023,05,13,08,32,16.90
2023,05,13,08,33,16.90
2023,05,13,08,34,17.00
2023,05,13,08,35,17.10
2023,05,13,08,36,17.10
2023,05,13,08,37,17.20
2023,05,13,08,38,17.20
2023,05,13,08,39,17.20
2023,05,13,08,40,17.30
2023,05,13,08,41,17.30
2023,05,13,08,42,17.30
2023,05,13,08,43,17.40
2023,05,13,08,44,17.40
2023,05,13,08,45,17.40
2023,05,13,08,46,17.50
2023,05,13,08,47,17.50
2023,05,13,08,48,17.50
2023,05,13,08,49,17.60
2023,05,13,08,50,17.60
2023,05,13,08,51,17.60
2023,05,13,08,52,17.60
2023,05,13,08,53,17.60
2023,05,13,08,54,17.70
2023,05,13,08,55,17.70
2023,05,13,08,56,17.70
2023,05,13,08,57,17.70
2023,05,13,08,58,17.70
2023,05,13,08,59,17.70
2023,05,13,09,00,17.80
2023,05,13,09,01,17.80
2023,05,13,09,02,17.80
2023,05,13,09,03,17.90
2023,05,13,09,04,17.90
2023,05,13,09,05,18.00
2023,05,13,09,06,18.00
2023,05,13,09,07,18.10
2023,05,13,09,08,18.10
2023,05,13,09,09,18.10
2023,05,13,09,10,18.10
2023,05,13,09,11,18.20
2023,05,13,09,12,18.20
2023,05,13,09,13,18.20
2023,05,13,09,14,18.30
2023,05,13,09,15,18.30
2023,05,13,09,16,18.30
2023,05,13,09,17,18.40
2023,05,13,09,18,18.50
2023,05,13,09,19,18.50
2023,05,13,09,20,18.60
2023,05,13,09,21,18.60
2023,05,13,09,22,18.70
2023,05,13,09,23,18.70
2023,05,13,09,24,18.70
2023,05,13,09,25,18.80
2023,05,13,09,26,18.80
2023,05,13,09,27,18.80
2023,05,13,09,28,18.80
2023,05,13,09,29,18.80
2023,05,13,09,30,18.80
2023,05,13,09,31,18.90
2023,05,13,09,32,18.90
2023,05,13,09,33,19.00
2023,05,13,09,34,18.90
2023,05,13,09,35,18.90
2023,05,13,09,36,18.90
2023,05,13,09,37,18.90
2023,05,13,09,38,19.00
2023,05,13,09,39,19.10
2023,05,13,09,40,19.20
2023,05,13,09,41,19.20
2023,05,13,09,42,19.30
2023,05,13,09,43,19.30
2023,05,13,09,44,19.30
2023,05,13,09,45,19.40
2023,05,13,09,46,19.50
2023,05,13,09,47,19.50
2023,05,13,09,48,19.60
2023,05,13,09,49,19.60
2023,05,13,09,50,19.70
2023,05,13,09,51,19.70
2023,05,13,09,52,19.60
2023,05,13,09,53,19.70
2023,05,13,09,54,19.60
2023,05,13,09,55,19.60
2023,05,13,09,56,19.60
2023,05,13,09,57,19.60
2023,05,13,09,58,19.60
2023,05,13,09,59,19.70
2023,05,13,10,00,19.70
2023,05,13,10,01,19.70
2023,05,13,10,02,19.80
2023,05,13,10,03,19.80
2023,05,13,10,04,19.80
2023,05,13,10,05,19.80
2023,05,13,10,06,19.80
2023,05,13,10,07,19.80
2023,05,13,10,08,19.90
2023,05,13,10,09,20.00
2023,05,13,10,10,20.10
2023,05,13,10,11,20.20
2023,05,13,10,12,20.20
2023,05,13,10,13,20.30
2023,05,13,10,14,20.30
2023,05,13,10,15,20.40
2023,05,13,10,16,20.50
2023,05,13,10,17,20.60
2023,05,13,10,18,20.60
2023,05,13,10,19,20.70
2023,05,13,10,20,20.70
2023,05,13,10,21,20.70
2023,05,13,10,22,20.80
2023,05,13,10,23,20.80
2023,05,13,10,24,20.80
2023,05,13,10,25,20.80
2023,05,13,10,26,20.70
2023,05,13,10,27,20.70
2023,05,13,10,28,20.70
2023,05,13,10,29,20.70
2023,05,13,10,30,20.70
2023,05,13,10,31,20.70
2023,05,13,10,32,20.80
2023,05,13,10,33,20.80
2023,05,13,10,34,20.90
2023,05,13,10,35,20.90
2023,05,13,10,36,20.90
2023,05,13,10,37,21.00
2023,05,13,10,38,21.00
2023,05,13,10,39,21.10
2023,05,13,10,40,21.10
2023,05,13,10,41,21.20
2023,05,13,10,42,21.20
2023,05,13,10,43,21.20
2023,05,13,10,44,21.20
2023,05,13,10,45,21.10
2023,05,13,10,46,21.10
2023,05,13,10,47,21.10
2023,05,13,10,48,21.20
2023,05,13,10,49,21.20
2023,05,13,10,50,21.30
2023,05,13,10,51,21.30
2023,05,13,10,52,21.30
2023,05,13,10,53,21.30
2023,05,13,10,54,21.40
2023,05,13,10,55,21.40
2023,05,13,10,56,21.40
2023,05,13,10,57,21.40
2023,05,13,10,58,21.40
2023,05,13,10,59,21.30
2023,05,13,11,00,21.30
2023,05,13,11,01,21.30
2023,05,13,11,02,21.20
2023,05,13,11,03,21.20
2023,05,13,11,04,21.20
2023,05,13,11,05,21.20
2023,05,13,11,06,21.40
2023,05,13,11,07,21.50
2023,05,13,11,08,21.60
2023,05,13,11,09,21.70
2023,05,13,11,10,21.90
2023,05,13,11,11,22.00
2023,05,13,11,12,22.10
2023,05,13,11,13,22.20
2023,05,13,11,14,22.30
2023,05,13,11,15,22.30
2023,05,13,11,16,22.40
2023,05,13,11,17,22.40
2023,05,13,11,18,22.40
2023,05,13,11,19,22.50
2023,05,13,11,20,22.50
2023,05,13,11,21,22.50
2023,05,13,11,22,22.50
2023,05,13,11,23,22.50
2023,05,13,11,24,22.50
2023,05,13,11,25,22.50
2023,05,13,11,26,22.60
2023,05,13,11,27,22.70
2023,05,13,11,28,22.70
2023,05,13,11,29,22.70
2023,05,13,11,30,22.70
2023,05,13,11,31,22.70
2023,05,13,11,32,22.70
2023,05,13,11,33,22.80
2023,05,13,11,34,22.70
2023,05,13,11,35,22.70
2023,05,13,11,36,22.70
2023,05,13,11,37,22.70
2023,05,13,11,38,22.70
2023,05,13,11,39,22.70
2023,05,13,11,40,22.70
2023,05,13,11,41,22.70
2023,05,13,11,42,22.70
2023,05,13,11,43,22.80
2023,05,13,11,44,22.80
2023,05,13,11,45,22.80
2023,05,13,11,46,22.90
2023,05,13,11,47,22.90
2023,05,13,11,48,22.90
2023,05,13,11,49,23.00
2023,05,13,11,50,23.00
2023,05,13,11,51,23.10
2023,05,13,11,52,23.20
2023,05,13,11,53,23.30
2023,05,13,11,54,23.30
2023,05,13,11,55,23.30
2023,05,13,11,56,23.30
2023,05,13,11,57,23.30
2023,05,13,11,58,23.30
2023,05,13,11,59,23.40
2023,05,13,12,00,23.40
2023,05,13,12,01,23.40
2023,05,13,12,02,23.50
2023,05,13,12,03,23.60
2023,05,13,12,04,23.70
2023,05,13,12,05,23.80
2023,05,13,12,06,23.80
2023,05,13,12,07,23.90
2023,05,13,12,08,23.90
2023,05,13,12,09,23.90
2023,05,13,12,10,23.90
2023,05,13,12,11,24.00
2023,05,13,12,12,24.10
2023,05,13,12,13,24.20
2023,05,13,12,14,24.40
2023,05,13,12,15,24.50
2023,05,13,12,16,24.60
2023,05,13,12,17,24.70
2023,05,13,12,18,24.70
2023,05,13,12,19,24.80
2023,05,13,12,20,24.90
2023,05,13,12,21,24.90
2023,05,13,12,22,24.90
2023,05,13,12,23,25.00
2023,05,13,12,24,25.00
2023,05,13,12,25,25.00
2023,05,13,12,26,25.10
2023,05,13,12,27,25.10
2023,05,13,12,28,25.10
2023,05,13,12,29,25.10
2023,05,13,12,30,25.10
2023,05,13,12,31,25.10
2023,05,13,12,32,25.10
2023,05,13,12,33,25.10
2023,05,13,12,34,25.10
2023,05,13,12,35,25.10
2023,05,13,12,36,25.10
2023,05,13,12,37,25.20
2023,05,13,12,38,25.20
2023,05,13,12,39,25.30
2023,05,13,12,40,25.40
2023,05,13,12,41,25.50
2023,05,13,12,42,25.60
2023,05,13,12,43,25.60
2023,05,13,12,44,25.60
2023,05,13,12,45,25.70
2023,05,13,12,46,25.80
2023,05,13,12,47,25.90
2023,05,13,12,48,25.90
2023,05,13,12,49,25.90
2023,05,13,12,50,25.90
2023,05,13,12,51,25.90
2023,05,13,12,52,25.80
2023,05,13,12,53,25.80
2023,05,13,12,54,25.80
2023,05,13,12,55,25.80
2023,05,13,12,56,25.80
2023,05,13,12,57,25.70
2023,05,13,12,58,25.80
2023,05,13,12,59,25.80
2023,05,13,13,00,25.90
2023,05,13,13,01,26.00
2023,05,13,13,02,26.00
2023,05,13,13,03,26.10
2023,05,13,13,04,26.10
2023,05,13,13,05,26.10
2023,05,13,13,06,26.00
2023,05,13,13,07,25.90
2023,05,13,13,08,25.80
2023,05,13,13,09,25.80
2023,05,13,13,10,25.90
2023,05,13,13,11,26.00
2023,05,13,13,12,26.10
2023,05,13,13,13,26.10
2023,05,13,13,14,26.20
2023,05,13,13,15,26.30
2023,05,13,13,16,26.30
2023,05,13,13,17,26.30
2023,05,13,13,18,26.30
2023,05,13,13,19,26.30
2023,05,13,13,20,26.40
2023,05,13,13,21,26.40
2023,05,13,13,22,26.60
2023,05,13,13,23,26.60
2023,05,13,13,24,26.70
2023,05,13,13,25,26.80
2023,05,13,13,26,27.00
2023,05,13,13,27,27.10
2023,05,13,13,28,27.20
2023,05,13,13,29,27.30
2023,05,13,13,30,27.30
2023,05,13,13,31,27.30
2023,05,13,13,32,27.30
2023,05,13,13,33,27.30
2023,05,13,13,34,27.20
2023,05,13,13,35,27.20
2023,05,13,13,36,27.10
2023,05,13,13,37,27.10
2023,05,13,13,38,27.10
2023,05,13,13,39,27.10
2023,05,13,13,40,27.10
2023,05,13,13,41,27.10
2023,05,13,13,42,27.10
2023,05,13,13,43,27.20
2023,05,13,13,44,27.20
2023,05,13,13,45,27.20
2023,05,13,13,46,27.10
2023,05,13,13,47,27.00
2023,05,13,13,48,27.00
2023,05,13,13,49,27.10
2023,05,13,13,50,27.10
2023,05,13,13,51,27.20
2023,05,13,13,52,27.20
2023,05,13,13,53,27.20
2023,05,13,13,54,27.20
2023,05,13,13,55,27.30
2023,05,13,13,56,27.50
2023,05,13,13,57,27.60
2023,05,13,13,58,27.60
2023,05,13,13,59,27.70
2023,05,13,14,00,27.70
2023,05,13,14,01,27.80
2023,05,13,14,02,27.80
2023,05,13,14,03,27.90
2023,05,13,14,04,27.90
2023,05,13,14,05,27.90
2023,05,13,14,06,27.90
2023,05,13,14,07,27.80
2023,05,13,14,08,27.80
2023,05,13,14,09,27.80
2023,05,13,14,10,27.70
2023,05,13,14,11,27.70
2023,05,13,14,12,27.70
2023,05,13,14,13,27.70
2023,05,13,14,14,27.70
2023,05,13,14,15,27.80
2023,05,13,14,16,27.70
2023,05,13,14,17,27.70
2023,05,13,14,18,27.80
2023,05,13,14,19,27.80
2023,05,13,14,20,27.90
2023,05,13,14,21,28.00
2023,05,13,14,22,28.10
2023,05,13,14,23,28.10
2023,05,13,14,24,28.10
2023,05,13,14,25,28.10
2023,05,13,14,26,28.10
2023,05,13,14,27,28.10
2023,05,13,14,28,28.10
2023,05,13,14,29,28.00
2023,05,13,14,30,28.00
2023,05,13,14,31,27.90
2023,05,13,14,32,27.90
2023,05,13,14,33,27.90
2023,05,13,14,34,27.90
2023,05,13,14,35,27.90
2023,05,13,14,36,27.90
2023,05,13,14,37,27.90
2023,05,13,14,38,28.00
2023,05,13,14,39,28.00
2023,05,13,14,40,28.00
2023,05,13,14,41,28.10
2023,05,13,14,42,28.10
2023,05,13,14,43,28.20
2023,05,13,14,44,28.20
2023,05,13,14,45,28.30
2023,05,13,14,46,28.40
2023,05,13,14,47,28.50
2023,05,13,14,48,28.50
2023,05,13,14,49,28.60
2023,05,13,14,50,28.70
2023,05,13,14,51,28.80
2023,05,13,14,52,28.80
2023,05,13,14,53,28.80
2023,05,13,14,54,28.80
2023,05,13,14,55,28.80
2023,05,13,14,56,28.70
2023,05,13,14,57,28.70
2023,05,13,14,58,28.70
2023,05,13,14,59,28.80
2023,05,13,15,00,28.80
2023,05,13,15,01,28.70
2023,05,13,15,02,28.70
2023,05,13,15,03,28.70
2023,05,13,15,04,28.70
2023,05,13,15,05,28.70
2023,05,13,15,06,28.70
2023,05,13,15,07,28.70
2023,05,13,15,08,28.70
2023,05,13,15,09,28.70
2023,05,13,15,10,28.80
2023,05,13,15,11,28.80
2023,05,13,15,12,28.70
2023,05,13,15,13,28.70
2023,05,13,15,14,28.60
2023,05,13,15,15,28.50
2023,05,13,15,16,28.40
2023,05,13,15,17,28.40
2023,05,13,15,18,28.30
2023,05,13,15,19,28.20
2023,05,13,15,20,28.20
2023,05,13,15,21,28.20
2023,05,13,15,22,28.20
2023,05,13,15,23,28.30
2023,05,13,15,24,28.40
2023,05,13,15,25,28.40
2023,05,13,15,26,28.40
2023,05,13,15,27,28.50
2023,05,13,15,28,28.50
2023,05,13,15,29,28.60
2023,05,13,15,30,28.60
2023,05,13,15,31,28.60
2023,05,13,15,32,28.70
2023,05,13,15,33,28.70
2023,05,13,15,34,28.70
2023,05,13,15,35,28.70
2023,05,13,15,36,28.70
2023,05,13,15,37,28.70
2023,05,13,15,38,28.70
2023,05,13,15,39,28.70
2023,05,13,15,40,28.80
2023,05,13,15,41,28.90
2023,05,13,15,42,28.90
2023,05,13,15,43,29.00
2023,05,13,15,44,29.10
2023,05,13,15,45,29.10
2023,05,13,15,46,29.20
2023,05,13,15,47,29.20
2023,05,13,15,48,29.10
2023,05,13,15,49,29.20
2023,05,13,15,50,29.20
2023,05,13,15,51,29.30
2023,05,13,15,52,29.40
2023,05,13,15,53,29.40
2023,05,13,15,54,29.40
2023,05,13,15,55,29.40
2023,05,13,15,56,29.40
2023,05,13,15,57,29.40
2023,05,13,15,58,29.40
2023,05,13,15,59,29.50
2023,05,13,16,00,29.50
2023,05,13,16,01,29.50
2023,05,13,16,02,29.50
2023,05,13,16,03,29.50
2023,05,13,16,04,29.40
2023,05,13,16,05,29.40
2023,05,13,16,06,29.40
2023,05,13,16,07,29.40
2023,05,13,16,08,29.30
2023,05,13,16,09,29.20
2023,05,13,16,10,29.20
2023,05,13,16,11,29.20
2023,05,13,16,12,29.30
2023,05,13,16,13,29.30
2023,05,13,16,14,29.40
2023,05,13,16,15,29.40
2023,05,13,16,16,29.50
2023,05,13,16,17,29.60
2023,05,13,16,18,29.80
2023,05,13,16,19,29.80
2023,05,13,16,20,29.90
2023,05,13,16,21,29.90
2023,05,13,16,22,30.00
2023,05,13,16,23,29.90
2023,05,13,16,24,29.90
2023,05,13,16,25,29.80
2023,05,13,16,26,29.60
2023,05,13,16,27,29.50
2023,05,13,16,28,29.40
2023,05,13,16,29,29.40
2023,05,13,16,30,29.30
2023,05,13,16,31,29.30
2023,05,13,16,32,29.30
2023,05,13,16,33,29.30
2023,05,13,16,34,29.20
2023,05,13,16,35,29.20
2023,05,13,16,36,29.20
2023,05,13,16,37,29.30
2023,05,13,16,38,29.20
2023,05,13,16,39,29.20
2023,05,13,16,40,29.20
2023,05,13,16,41,29.10
2023,05,13,16,42,29.10
2023,05,13,16,43,29.00
2023,05,13,16,44,28.90
2023,05,13,16,45,28.80
2023,05,13,16,46,28.80
2023,05,13,16,47,28.80
2023,05,13,16,48,28.80
2023,05,13,16,49,28.90
2023,05,13,16,50,28.90
2023,05,13,16,51,28.90
2023,05,13,16,52,28.90
2023,05,13,16,53,28.90
2023,05,13,16,54,28.90
2023,05,13,16,55,29.00
2023,05,13,16,56,29.00
2023,05,13,16,57,29.10
2023,05,13,16,58,29.10
2023,05,13,16,59,29.10
2023,05,13,17,00,29.10
2023,05,13,17,01,29.20
2023,05,13,17,02,29.20
2023,05,13,17,03,29.30
2023,05,13,17,04,29.30
2023,05,13,17,05,29.30
2023,05,13,17,06,29.30
2023,05,13,17,07,29.30
2023,05,13,17,08,29.30
2023,05,13,17,09,29.30
2023,05,13,17,10,29.40
2023,05,13,17,11,29.30
2023,05,13,17,12,29.30
2023,05,13,17,13,29.30
2023,05,13,17,14,29.30
2023,05,13,17,15,29.30
2023,05,13,17,16,29.30
2023,05,13,17,17,29.30
2023,05,13,17,18,29.30
2023,05,13,17,19,29.20